Weather History for Ravenna, OH

Change the Weather History Date:

Monday, August 4, 2014

  Actual Average (KCAK) Record (KCAK)
Temperature  
Mean Temperature 68 °F 72 °F  
Max Temperature 82 °F 81 °F 101 °F (1930)
Min Temperature 55 °F 62 °F 47 °F (1951)
Degree Days  
Heating Degree Days 0 0  
Month to date heating degree days 0  
Since 1 June heating degree days 55  
Since 1 July heating degree days 6  
Cooling Degree Days 4 7  
Month to date cooling degree days 28  
Year to date cooling degree days 427  
Since 1 June cooling degree days 385  
Growing Degree Days 18 (Base 50)    
Moisture  
Dew Point 59 °F    
Average Humidity 57    
Maximum Humidity 100    
Minimum Humidity 33    
Precipitation  
Precipitation 0.00 in 0.12 in 1.83 in (1990)
Month to date precipitation 0.49  
Year to date precipitation 24.13  
Snow  
Snow 0.00 in 0.00 in - ()
Month to date snowfall 0.0  
Since 1 June snowfall 0.0  
Since 1 July snowfall 0.0  
Snow Depth -    
Sea Level Pressure  
Sea Level Pressure 30.12 in    
Wind  
Wind Speed 1 mph (West)    
Max Wind Speed 9 mph    
Max Gust Speed -    
Visibility 6 miles    
Events Fog    
T = Trace of Precipitation, MM = Missing Value Source: NWS Daily Summary

Daily Weather History Graph

Daily Weather History Graph

Search for Another Location

Airport:

Trip Planner

Search our weather history database for the weather conditions in past years. The results will help you decide how hot, cold, wet, or windy it might be!

Date:

Astronomy

Aug. 04, 2014 Rise Set
Actual Time 6:23 AM EDT 8:38 PM EDT
Civil Twilight 5:52 AM EDT 9:08 PM EDT
Nautical Twilight 5:14 AM EDT 9:46 PM EDT
Astronomical Twilight 4:32 AM EDT 10:27 PM EDT
Moon 2:48 PM EDT (8/4) 12:29 AM EDT (8/4)
Length of Visible Light 15h 16m
Length of Day
14h 14m
First Quarter, 57% of the Moon is Illuminated
Aug 4
First Quarter
Aug 10
Full
Aug 17
Last Quarter
Aug 25
New
Sep 2
First Quarter

Hourly Weather History & Observations

Time (EDT) Temp. Heat Index Dew Point Humidity Pressure Visibility Wind Dir Wind Speed Gust Speed Precip Events Conditions
12:17 AM 58.8 °F - - N/A% 30.13 in 2.0 mi Calm Calm - N/A   Clear
12:37 AM 59.4 °F - - N/A% 30.13 in 1.8 mi Calm Calm - N/A   Mist
1:17 AM 59.0 °F - - N/A% 30.12 in 0.8 mi Calm Calm - N/A   Mist
1:37 AM 59.0 °F - - N/A% 30.12 in 5.0 mi Calm Calm - N/A   Haze
1:57 AM 59.0 °F - - N/A% 30.12 in 0.2 mi Calm Calm - N/A Fog Fog
2:17 AM 59.0 °F - - N/A% 30.12 in 0.5 mi Calm Calm - N/A Fog Fog
2:37 AM 57.9 °F - - N/A% 30.12 in 1.5 mi Calm Calm - N/A   Mist
2:57 AM 58.5 °F - - N/A% 30.12 in 3.0 mi Calm Calm - N/A   Clear
3:17 AM 57.9 °F - - N/A% 30.11 in 0.2 mi Calm Calm - N/A Fog Fog
3:37 AM 59.2 °F - - N/A% 30.12 in 0.8 mi Calm Calm - N/A   Mostly Cloudy
3:57 AM 58.5 °F - - N/A% 30.11 in 0.2 mi Calm Calm - N/A Fog Fog
4:17 AM 58.5 °F - - N/A% 30.12 in 0.2 mi Calm Calm - N/A Fog Fog
4:37 AM 59.2 °F - - N/A% 30.12 in 3.0 mi Calm Calm - N/A   Scattered Clouds
4:57 AM 58.1 °F - - N/A% 30.12 in 0.2 mi Calm Calm - N/A Fog Fog
5:17 AM 58.5 °F - - N/A% 30.12 in 4.0 mi Calm Calm - N/A   Haze
5:37 AM 57.0 °F - - N/A% 30.12 in 0.8 mi Calm Calm - N/A   Mist
5:57 AM 55.4 °F - - N/A% 30.12 in 2.5 mi Calm Calm - N/A   Clear
6:17 AM 55.8 °F - - N/A% 30.12 in 1.0 mi Calm Calm - N/A   Mist
6:37 AM 56.3 °F - - N/A% 30.12 in 0.2 mi Calm Calm - N/A Fog Fog
6:57 AM 56.5 °F - - N/A% 30.13 in 0.5 mi Calm Calm - N/A Fog Fog
7:17 AM 57.7 °F - - N/A% 30.13 in 1.8 mi Calm Calm - N/A   Scattered Clouds
7:37 AM 59.2 °F - - N/A% 30.13 in 4.0 mi Calm Calm - N/A   Haze
7:57 AM 62.1 °F - - N/A% 30.13 in 3.0 mi Calm Calm - N/A   Clear
8:17 AM 64.0 °F - - N/A% 30.13 in 4.0 mi Calm Calm - N/A   Haze
8:37 AM 65.3 °F - - N/A% 30.13 in 4.0 mi Calm Calm - N/A   Haze
8:58 AM 66.4 °F - - N/A% 30.14 in 5.0 mi Calm Calm - N/A   Haze
9:17 AM 69.3 °F - - N/A% 30.14 in 7.0 mi West 3.5 mph - N/A   Clear
9:37 AM 70.7 °F - 65.1 °F 82% 30.14 in 10.0 mi West 3.5 mph - N/A   Clear
9:58 AM 72.3 °F - 62.2 °F 70% 30.14 in 10.0 mi West 3.5 mph - N/A   Clear
10:17 AM 73.8 °F - 62.2 °F 67% 30.14 in 10.0 mi WSW 6.9 mph - N/A   Clear
10:37 AM 74.3 °F - 61.3 °F 64% 30.15 in 4.0 mi WSW 5.8 mph - N/A   Haze
10:57 AM 75.4 °F - 63.5 °F 66% 30.15 in 4.0 mi West 6.9 mph - N/A   Haze
11:17 AM 76.1 °F - 62.4 °F 62% 30.15 in 5.0 mi WSW 4.6 mph - N/A   Haze
11:37 AM 77.0 °F - 61.2 °F 58% 30.15 in 5.0 mi West 8.1 mph - N/A   Haze
11:57 AM 77.9 °F - 62.6 °F 59% 30.15 in 7.0 mi WNW 3.5 mph - N/A   Clear
12:17 PM 78.1 °F - 62.1 °F 58% 30.14 in 7.0 mi WSW 3.5 mph - N/A   Clear
12:37 PM 79.0 °F - 61.3 °F 55% 30.15 in 7.0 mi West 4.6 mph - N/A   Clear
12:57 PM 79.7 °F - 59.0 °F 49% 30.14 in 7.0 mi West 3.5 mph - N/A   Clear
1:17 PM 79.3 °F - 57.9 °F 48% 30.14 in 7.0 mi WNW 6.9 mph - N/A   Mostly Cloudy
1:37 PM 79.2 °F - 60.6 °F 53% 30.13 in 7.0 mi Calm Calm - N/A   Mostly Cloudy
1:57 PM 79.3 °F - 58.8 °F 49% 30.13 in 7.0 mi NNW 4.6 mph - N/A   Mostly Cloudy
2:17 PM 81.1 °F 81.1 °F 56.5 °F 43% 30.13 in 7.0 mi SW 3.5 mph - N/A   Scattered Clouds
2:37 PM 81.5 °F 81.1 °F 55.8 °F 41% 30.12 in 7.0 mi West 6.9 mph - N/A   Scattered Clouds
2:58 PM 81.5 °F 80.8 °F 53.6 °F 38% 30.12 in 7.0 mi West 9.2 mph - N/A   Scattered Clouds
3:17 PM 81.9 °F 81.1 °F 53.6 °F 38% 30.11 in 7.0 mi SW 5.8 mph - N/A   Clear
3:37 PM 82.2 °F 81.3 °F 53.8 °F 37% 30.10 in 7.0 mi SW 3.5 mph - N/A   Clear
3:57 PM 81.7 °F - 49.8 °F 33% 30.10 in 7.0 mi SW 4.6 mph - N/A   Clear
4:17 PM 81.9 °F 81.1 °F 53.8 °F 38% 30.10 in 7.0 mi West 4.6 mph - N/A   Clear
4:37 PM 81.7 °F - 51.6 °F 35% 30.09 in 7.0 mi Calm Calm - N/A   Clear
4:57 PM 81.9 °F - 52.0 °F 35% 30.09 in 5.0 mi West 4.6 mph - N/A   Clear
5:17 PM 81.3 °F - 51.3 °F 35% 30.09 in 7.0 mi WSW 3.5 mph - N/A   Clear
5:37 PM 81.7 °F - 52.7 °F 37% 30.08 in 7.0 mi Calm Calm - N/A   Clear
5:57 PM 81.1 °F 80.6 °F 53.6 °F 38% 30.08 in 7.0 mi WSW 3.5 mph - N/A   Clear
6:17 PM 80.6 °F - 51.3 °F 36% 30.09 in 5.0 mi Calm Calm - N/A   Haze
6:37 PM 79.0 °F - 57.9 °F 48% 30.09 in 7.0 mi West 3.5 mph - N/A   Clear
6:57 PM 80.4 °F 80.5 °F 55.9 °F 43% 30.09 in 10.0 mi WSW 3.5 mph - N/A   Clear
7:17 PM 78.6 °F - 58.8 °F 50% 30.09 in 10.0 mi West 3.5 mph - N/A   Clear
7:37 PM 75.6 °F - 61.5 °F 62% 30.09 in 10.0 mi Calm Calm - N/A   Clear
7:57 PM 74.1 °F - 61.7 °F 65% 30.09 in 10.0 mi Calm Calm - N/A   Clear
8:17 PM 71.6 °F - 61.7 °F 71% 30.09 in 10.0 mi Calm Calm - N/A   Clear
8:37 PM 70.7 °F - 60.8 °F 71% 30.09 in 10.0 mi Calm Calm - N/A   Clear
8:58 PM 69.1 °F - 60.6 °F 74% 30.09 in 10.0 mi Calm Calm - N/A   Clear
9:10 PM 69.3 °F - 61.5 °F 76% 30.09 in 10.0 mi Calm Calm - N/A   Clear
9:37 PM 68.0 °F - 62.8 °F 83% 30.10 in 10.0 mi NNW 4.6 mph - N/A   Scattered Clouds
9:57 PM 68.0 °F - 64.8 °F 89% 30.11 in 10.0 mi Calm Calm - N/A   Scattered Clouds
10:17 PM 65.7 °F - 65.5 °F 99% 30.11 in 10.0 mi Calm Calm - N/A   Clear
10:37 PM 67.1 °F - 63.1 °F 87% 30.11 in 10.0 mi Calm Calm - N/A   Clear
10:57 PM 64.9 °F - 65.1 °F 100% 30.11 in 10.0 mi Calm Calm - N/A   Clear
11:37 PM 63.7 °F - - N/A% 30.10 in 10.0 mi Calm Calm - N/A   Clear
11:57 PM 64.2 °F - - N/A% 30.10 in 10.0 mi Calm Calm - N/A   Clear